Regional Weather Roundup
Issued by NWS

Home | Current Version | Previous Version | Text Only | Print | Product List | Glossary On
Versions: 1 2 3 4 5 6 7 8 9 10 11 12 13 14 15 16 17 18 19 20 21 22 23 24 25 26 27 28 29 30 31 32 33 34 35 36 37 38 39 40 41 42 43 44 45 46 47 48 49 50
000
ASUS44 KOUN 052110
RWROK

WEATHER ROUNDUP FOR OKLAHOMA
NATIONAL WEATHER SERVICE NORMAN OK
300 PM CST MON DEC 05 2016

NOTE: "FAIR" INDICATES FEW OR NO CLOUDS BELOW 12,000 FEET WITH NO
      SIGNIFICANT WEATHER AND/OR OBSTRUCTIONS TO VISIBILITY.

OKZ001>007-009>012-014-015-017-052200-
NORTHWEST OKLAHOMA AND THE PANHANDLE

CITY           SKY/WX    TMP DP  RH WIND       PRES   REMARKS
GAGE           SUNNY     57  29  34 S28       29.58F
GUYMON         SUNNY     65  28  24 S12       29.51F
ENID/WOODRING  MOSUNNY   54  41  62 S17G25    29.67F
$$

OKZ016-021>023-033>039-044-045-052200-
SOUTHWEST OKLAHOMA

CITY           SKY/WX    TMP DP  RH WIND       PRES   REMARKS
LAWTON/REGL    MOSUNNY   51  42  71 S14       29.71F
LAWTON/FT SILL PTSUNNY   48  43  81 SW5       29.70F
FREDERICK      MOSUNNY   53  43  68 S13       29.67F
CLINTON        SUNNY     50  39  66 S24G32    29.66F
HOBART         SUNNY     51  42  71 S21G26    29.68F
ALTUS AFB      SUNNY     55  40  57 S20       29.67F
$$

OKZ018>020-024>031-052200-
CENTRAL OKLAHOMA

CITY           SKY/WX    TMP DP  RH WIND       PRES   REMARKS
OKLAHOMA CITY  MOSUNNY   51  41  68 S13       29.70F
OKC/WILEY POST MOSUNNY   50  40  68 S14       29.70F
OKC/TINKER AFB SUNNY     51  40  68 S12       29.69F
STILLWATER     MOSUNNY   51  40  65 S14       29.71F
GUTHRIE        MOSUNNY   50  41  71 S15       29.70F
$$

OKZ008-013-054>072-052200-
NORTHEAST OKLAHOMA

CITY           SKY/WX    TMP DP  RH WIND       PRES   REMARKS
TULSA          CLOUDY    48  42  80 S9        29.75F
TULSA/JONES    CLOUDY    48  41  76 S8        29.76F
PONCA CITY     SUNNY     54  38  54 S13G23    29.70F
BARTLESVILLE   PTSUNNY   48  39  71 S14       29.77S
MUSKOGEE       CLOUDY    47  42  83 S8        29.79F
$$

OKZ032-040>043-046>053-073>077-052200-
SOUTH CENTRAL/SOUTHEAST OKLAHOMA

CITY           SKY/WX    TMP DP  RH WIND       PRES   REMARKS
ARDMORE/DWNTWN CLOUDY    48  43  81 S3        29.74F
MCALESTER      CLOUDY    51  41  68 CALM      29.75F
$$





USA.gov is the U.S. government's official web portal to all federal, state and local government web resources and services.